SCP
0 0 0 0 0 0 0 0 0 0 0 0 0 0 0 0 0 0 0 0 0 0 0 0 0 1 1 1 1 1 1 2 1 1 1 1 0 0 0 0 0 0 0 0
0 0 -0 0 0 0 0 0 0 0 0 0 0 0 0 0 0 0 0 0 0 0 1 1 1 1 0 1 1 1 2 2 1 1 1 1 0 0 0 0 0 0 0 0
0 0 0 0 0 0 0 0 0 0 0 0 0 0 0 0 0 0 0 0 0 0 0 1 2 2 1 2 2 1 2 3 2 2 2 2 1 0 0 0 0 0 0 0
0 0 0 0 0 0 0 0 0 0 0 0 0 0 0 0 0 0 0 0 0 0 0 0 1 2 2 4 3 3 4 3 2 3 3 2 1 0 0 0 0 0 0 0
0 0 0 0 0 0 0 0 0 0 0 0 0 0 0 0 0 0 0 0 0 0 0 0 0 1 1 1 3 4 3 3 4 4 3 1 1 0 0 0 0 0 0 0
0 0 0 0 0 0 0 0 0 0 0 0 0 0 0 0 0 0 0 0 0 0 0 0 0 0 1 1 3 2 4 2 2 3 3 2 2 2 0 0 0 0 0 0
0 0 0 0 0 0 0 0 0 0 0 0 0 0 0 0 0 0 0 0 0 0 0 0 0 0 1 1 2 3 3 3 2 2 1 3 3 2 1 0 0 0 0 0
0 0 0 0 0 0 0 0 0 0 0 0 0 0 0 0 0 0 0 0 0 0 0 0 0 0 0 1 2 2 2 2 3 3 4 4 2 2 1 0 0 0 0 0
0 0 0 0 0 0 0 0 0 0 0 0 0 0 0 0 0 0 0 0 0 0 0 0 0 0 0 0 1 1 1 2 5 3 4 3 2 3 1 0 0 0 0 0
0 0 0 0 0 0 0 0 0 0 0 0 0 0 0 0 0 0 0 0 0 0 0 0 0 0 0 0 1 1 1 1 1 3 3 4 4 1 0 1 0 0 0 0
0 0 0 0 0 0 0 0 0 0 0 0 0 0 0 1 0 0 0 0 0 0 0 0 0 0 0 0 0 1 1 1 1 2 2 2 4 0 0 0 0 0 0 0
0 0 0 0 0 0 0 0 0 0 0 0 0 0 0 0 0 0 0 0 0 0 0 0 0 0 1 0 0 0 1 0 1 2 1 2 1 0 0 0 0 0 0 0
0 0 0 0 0 0 0 0 0 0 0 0 0 0 0 0 0 0 0 0 0 0 0 0 0 0 0 1 0 0 0 1 1 1 1 1 0 0 0 0 0 1 0 0
0 0 0 0 0 0 0 0 0 0 0 0 0 0 0 0 0 0 0 0 0 0 0 0 0 0 0 0 1 0 0 1 1 1 1 1 0 1 1 0 0 0 0 0
0 0 0 0 0 0 0 0 0 0 0 0 0 0 0 0 0 0 0 0 0 0 0 0 0 0 0 0 0 1 1 1 1 1 1 1 -0 0 1 0 0 0 1 0
0 0 0 0 0 0 0 0 0 0 0 0 0 0 0 0 0 0 0 0 0 0 0 0 0 0 0 0 0 0 1 1 1 1 0 1 0 0 1 1 0 0 1 1
0 0 0 0 0 0 0 0 0 0 0 0 0 0 0 0 0 0 0 0 0 0 0 0 0 0 0 0 0 0 0 0 0 0 0 1 1 1 1 1 0 1 1 1
0 0 0 0 0 0 0 0 0 0 0 0 0 0 0 0 0 0 0 0 0 0 0 0 0 0 0 0 0 0 1 0 0 0 1 1 1 1 1 1 1 1 2 2
-0 0 0 0 0 -0 -0 0 0 0 0 0 0 0 0 0 0 0 0 0 0 0 0 0 0 0 0 0 0 0 0 1 1 1 1 0 0 1 1 1 1 1 1 1
0 0 0 0 0 0 0 0 0 0 0 -0 0 0 0 0 0 0 0 0 0 0 0 0 0 0 0 0 0 0 0 0 0 0 0 1 1 1 1 2 2 1 1 1
0 0 0 0 0 0 0 0 0 0 0 0 0 0 0 0 0 0 0 0 0 0 0 0 0 0 0 0 0 0 0 0 0 0 0 0 0 2 2 2 3 2 2 1
-0 0 0 0 0 0 0 0 0 0 0 0 0 0 0 0 0 0 0 0 0 0 0 0 0 0 0 0 0 0 0 0 0 -0 0 0 0 0 1 1 1 1 0 0
0 0 -0 0 0 0 0 0 0 0 0 0 0 0 0 0 0 0 0 0 0 0 0 0 0 0 0 0 0 0 0 0 0 0 0 0 0 0 0 0 0 0 0 0
0 0 0 0 0 0 0 0 0 0 0 0 0 0 0 0 0 0 0 0 0 0 0 0 0 0 0 0 0 0 0 0 0 0 -0 0 0 0 0 0 0 0 0 0
0 0 0 0 -0 0 0 0 0 0 0 0 0 -0 0 0 0 0 0 0 0 0 0 0 0 0 0 0 0 0 0 0 0 0 0 0 0 0 0 0 0 0 0 0
0 0 0 0 0 0 0 0 0 0 0 0 0 0 0 0 0 0 0 0 0 0 0 0 0 0 0 0 0 0 0 0 0 0 0 0 0 0 0 0 0 0 0 0
Wind_Speed_500mb
28 23 29 34 34 35 32 25 27 24 9 19 26 30 33 41 48 39 41 50 56 63 50 44 48 53 53 56 59 71 73 72 66 57 49 44 42 41 38 34 38 36 31 27
15 29 28 24 27 31 34 36 37 32 22 27 33 39 36 38 42 49 47 50 53 54 45 39 47 58 57 61 74 72 77 78 75 67 55 45 43 45 41 40 42 40 35 30
36 24 10 30 28 29 32 34 29 30 23 27 28 42 41 39 55 55 57 54 54 52 66 43 45 55 54 72 74 77 83 81 79 73 63 58 47 45 49 48 47 45 40 33
34 34 25 28 32 33 36 34 31 30 29 30 31 33 32 29 35 45 55 60 55 51 50 58 49 51 68 61 61 77 82 78 80 82 80 77 72 67 59 54 50 52 46 38
31 33 31 36 37 36 33 32 29 34 34 31 38 22 32 34 26 34 37 58 57 53 43 55 61 61 56 52 66 89 77 78 81 91 88 84 80 55 56 50 52 57 52 45
37 14 18 27 26 30 25 24 23 30 29 31 44 37 30 26 32 26 31 41 34 41 50 47 54 60 57 58 62 74 65 87 90 95 97 89 87 68 58 59 60 63 59 53
18 31 16 15 31 35 28 30 22 26 28 40 33 35 31 20 11 12 21 22 19 19 18 25 40 48 54 61 65 66 88 93 80 70 60 90 96 87 85 73 69 64 59 58
21 23 20 3 14 27 32 39 32 42 33 36 39 26 28 12 6 0 8 10 11 14 14 12 14 26 46 52 60 67 70 81 85 107 104 108 112 98 95 77 72 72 61 60
14 22 9 2 6 8 25 29 31 39 43 34 28 28 17 19 11 4 6 10 19 24 23 19 15 14 25 45 57 66 67 69 82 106 111 115 127 107 92 82 81 74 68 57
7 16 16 8 20 21 19 15 19 22 42 47 38 45 33 29 10 4 10 18 22 25 26 25 21 17 16 28 44 54 63 70 72 96 105 115 114 110 90 80 81 79 75 69
7 10 22 11 8 23 13 24 25 18 24 33 37 34 17 24 11 11 15 23 28 28 28 29 28 24 19 20 32 46 54 62 65 80 84 87 112 120 88 67 82 85 81 78
5 11 22 27 10 6 4 15 21 18 31 29 34 24 12 13 15 12 15 23 27 31 31 31 33 30 25 23 23 39 50 55 60 69 64 89 100 109 94 82 93 96 83 80
4 9 17 23 21 21 15 4 5 14 21 37 20 28 15 11 10 13 21 27 30 32 33 34 36 36 34 31 26 25 44 50 51 56 62 70 81 98 97 74 86 99 80 82
8 18 21 22 20 12 13 14 13 16 16 33 41 49 16 12 12 15 27 33 32 31 32 31 35 39 41 37 31 18 29 41 44 51 59 63 66 83 100 99 74 68 74 77
10 22 19 24 23 24 27 30 27 28 29 28 31 29 34 24 30 39 35 32 30 30 32 34 34 37 40 40 33 21 18 32 39 45 53 57 62 77 90 91 90 83 77 79
11 17 17 28 31 30 38 39 36 37 36 34 34 42 35 28 25 32 30 28 27 31 31 33 31 31 34 36 40 27 16 22 32 41 45 49 53 61 70 95 97 104 87 84
19 20 21 26 16 23 25 38 37 36 37 34 37 41 22 25 25 27 28 27 33 35 33 29 28 27 30 34 37 36 12 17 25 34 37 40 48 56 65 77 99 100 98 94
30 24 20 23 25 27 15 11 15 23 26 29 36 39 35 37 41 41 36 36 37 35 34 28 22 20 23 29 35 28 17 8 15 25 32 37 42 50 57 71 95 91 105 101
33 28 23 20 23 32 43 32 25 24 35 24 32 36 40 39 43 46 36 35 36 35 35 34 29 32 26 25 26 32 26 18 4 11 20 29 36 43 56 65 78 64 68 85
15 26 21 21 21 23 15 1 13 11 35 39 39 21 15 21 20 19 12 18 28 31 35 39 35 35 32 30 23 19 21 26 16 8 14 18 25 38 55 61 65 62 61 64
16 15 25 24 22 22 25 32 24 29 19 5 4 14 22 24 31 32 27 29 26 27 31 29 32 32 31 24 18 12 10 15 21 10 1 19 24 36 49 54 59 55 56 53
17 12 15 17 24 29 17 27 42 37 40 35 35 35 32 42 41 35 31 30 30 27 25 23 25 25 24 25 21 21 25 12 1 13 7 11 30 43 48 56 56 56 58 51
11 13 15 16 15 35 50 47 59 60 54 56 57 53 51 49 48 49 47 44 37 32 27 23 23 21 24 20 20 16 21 22 16 13 26 22 19 30 46 44 52 56 50 48
19 32 14 20 28 45 62 66 66 66 72 72 68 66 59 69 69 65 60 55 49 42 30 25 24 23 22 23 24 21 17 15 12 24 15 13 14 13 27 36 31 45 38 30
33 22 25 39 50 54 51 51 58 56 59 65 74 76 68 61 56 53 49 49 51 45 34 24 22 22 24 24 14 23 24 21 22 21 20 18 20 20 11 26 7 10 22 15
19 14 8 17 57 54 60 72 66 65 66 67 67 60 57 52 50 43 41 39 41 45 37 28 25 25 19 26 16 13 27 25 26 24 28 26 25 22 19 8 13 6 5 11
Wind_Direction_500mb
196 219 224 231 228 256 275 265 260 259 256 264 262 253 248 252 255 247 249 252 244 235 228 219 197 197 192 192 195 197 201 203 200 197 189 190 191 197 196 196 194 188 184 184
187 232 246 243 245 244 243 245 246 250 252 260 260 255 249 252 255 251 255 247 248 217 223 209 199 192 193 209 202 198 203 205 205 202 193 192 191 201 200 202 198 193 190 187
242 257 282 229 227 230 234 240 242 249 254 240 266 264 252 249 252 253 250 250 248 236 213 217 210 199 190 206 205 205 204 209 207 204 197 197 193 198 202 205 202 199 194 190
242 256 240 238 239 226 247 223 248 248 248 253 228 267 257 229 239 238 244 241 236 237 238 227 220 206 203 218 234 217 208 212 212 212 209 210 212 208 209 207 203 204 199 195
238 227 233 238 238 234 247 265 231 249 251 257 247 248 261 247 227 247 241 242 244 244 249 236 222 220 217 204 209 213 227 218 221 217 218 215 216 214 213 204 205 206 204 201
257 287 269 267 257 243 252 263 256 255 252 247 238 248 251 242 215 238 244 245 259 258 247 250 231 226 220 212 207 218 214 228 218 218 218 218 217 205 200 203 209 207 208 206
210 242 230 259 250 244 232 236 240 228 228 243 240 235 243 264 13 333 325 318 323 314 287 261 234 228 223 217 212 211 219 223 223 221 221 232 224 220 220 216 216 205 203 206
273 213 202 143 256 286 218 232 234 242 246 255 225 231 258 105 80 359 277 311 332 336 326 311 279 247 227 223 217 215 217 217 218 214 218 228 222 219 220 221 218 215 205 207
303 244 131 154 296 283 241 236 258 269 266 265 263 214 141 158 118 103 62 27 7 359 354 344 320 286 237 227 225 222 223 221 219 229 220 221 217 217 220 216 217 221 208 204
39 273 243 327 288 227 259 345 235 224 247 247 238 246 252 163 146 82 36 18 10 358 354 353 342 320 282 236 230 229 223 225 224 230 228 224 218 221 216 213 218 218 213 209
304 248 257 268 243 291 239 237 239 288 261 243 247 249 26 105 111 59 24 9 3 359 355 351 347 338 316 284 236 232 228 224 224 229 226 217 224 221 209 219 223 221 219 215
41 295 270 270 64 346 301 280 286 271 253 244 259 258 95 92 79 41 21 2 355 354 354 358 356 349 339 320 280 236 230 225 226 223 218 217 220 216 205 195 231 224 220 215
21 231 274 225 202 219 243 211 265 246 279 263 250 254 118 117 102 35 8 353 346 348 352 354 360 1 354 347 330 269 230 228 223 218 217 216 217 217 218 213 209 220 215 213
281 266 268 279 351 327 273 234 257 263 255 241 252 267 178 251 272 305 328 322 328 336 345 351 356 2 4 359 346 307 239 225 221 217 217 217 214 212 209 211 199 222 217 215
257 272 282 280 286 283 268 265 264 247 256 260 261 283 281 300 313 304 300 300 309 330 338 346 351 358 5 4 356 335 258 233 225 217 218 216 216 222 222 208 210 200 219 219
209 275 277 282 277 273 276 267 255 248 252 255 265 267 273 287 292 302 299 289 295 307 323 329 339 347 358 2 360 341 286 237 223 218 219 218 214 211 206 212 196 194 207 220
248 267 273 279 291 297 275 262 249 246 237 244 250 261 302 294 281 293 305 304 290 290 299 310 323 331 348 354 354 352 301 247 225 220 219 221 217 212 205 202 200 200 201 212
258 251 262 269 283 265 263 313 280 274 241 242 254 268 277 274 281 282 286 297 298 297 281 290 293 323 337 350 5 15 7 297 235 226 221 217 217 214 206 203 200 200 207 206
229 246 257 250 259 261 276 265 234 254 266 247 259 267 272 289 288 275 275 279 290 290 286 277 283 278 299 325 343 17 26 3 281 225 230 221 215 209 204 203 196 194 191 197
212 224 234 249 238 257 278 314 258 280 269 265 255 267 261 293 281 283 349 313 302 297 288 276 277 287 272 285 296 329 13 15 355 265 214 200 211 203 198 191 187 189 186 188
196 213 230 240 250 263 273 276 232 243 276 103 191 266 280 285 289 305 303 294 298 304 306 281 272 273 268 270 301 278 322 4 14 14 216 189 178 189 191 187 183 178 175 179
275 260 235 241 250 263 240 261 242 255 278 290 284 277 288 284 279 278 281 284 286 298 305 295 277 271 279 254 265 280 269 232 33 11 59 121 170 154 165 172 174 171 172 171
257 250 293 275 271 294 302 293 287 288 284 285 286 282 284 278 270 279 274 275 276 280 289 291 285 273 266 266 245 266 266 235 219 129 99 108 127 160 172 167 173 173 168 172
277 280 247 281 255 262 272 281 279 272 272 272 270 272 270 268 265 268 266 267 262 267 268 277 277 272 260 258 255 234 212 177 170 216 181 132 196 26 114 134 144 145 136 138
281 280 258 266 275 295 282 282 291 274 271 268 271 266 262 265 260 261 265 257 252 253 255 258 267 269 258 251 250 231 219 198 182 170 172 155 133 152 89 92 264 105 116 146
283 307 297 292 301 289 285 291 285 280 275 267 264 262 261 250 254 258 263 260 254 246 245 247 260 259 271 252 258 232 226 227 204 200 195 200 213 203 191 211 278 298 244 257
Wind_Speed_850mb
28 23 29 34 34 35 32 25 27 24 9 19 26 30 33 41 48 39 41 50 56 63 50 44 48 53 53 56 59 71 73 72 66 57 49 44 42 41 38 34 38 36 31 27
15 29 28 24 27 31 34 36 37 32 22 27 33 39 36 38 42 49 47 50 53 54 45 39 47 58 57 61 74 72 77 78 75 67 55 45 43 45 41 40 42 40 35 30
36 24 10 30 28 29 32 34 29 30 23 27 28 42 41 39 55 55 57 54 54 52 66 43 45 55 54 72 74 77 83 81 79 73 63 58 47 45 49 48 47 45 40 33
34 34 25 28 32 33 36 34 31 30 29 30 31 33 32 29 35 45 55 60 55 51 50 58 49 51 68 61 61 77 82 78 80 82 80 77 72 67 59 54 50 52 46 38
31 33 31 36 37 36 33 32 29 34 34 31 38 22 32 34 26 34 37 58 57 53 43 55 61 61 56 52 66 89 77 78 81 91 88 84 80 55 56 50 52 57 52 45
37 14 18 27 26 30 25 24 23 30 29 31 44 37 30 26 32 26 31 41 34 41 50 47 54 60 57 58 62 74 65 87 90 95 97 89 87 68 58 59 60 63 59 53
18 31 16 15 31 35 28 30 22 26 28 40 33 35 31 20 11 12 21 22 19 19 18 25 40 48 54 61 65 66 88 93 80 70 60 90 96 87 85 73 69 64 59 58
21 23 20 3 14 27 32 39 32 42 33 36 39 26 28 12 6 0 8 10 11 14 14 12 14 26 46 52 60 67 70 81 85 107 104 108 112 98 95 77 72 72 61 60
14 22 9 2 6 8 25 29 31 39 43 34 28 28 17 19 11 4 6 10 19 24 23 19 15 14 25 45 57 66 67 69 82 106 111 115 127 107 92 82 81 74 68 57
7 16 16 8 20 21 19 15 19 22 42 47 38 45 33 29 10 4 10 18 22 25 26 25 21 17 16 28 44 54 63 70 72 96 105 115 114 110 90 80 81 79 75 69
7 10 22 11 8 23 13 24 25 18 24 33 37 34 17 24 11 11 15 23 28 28 28 29 28 24 19 20 32 46 54 62 65 80 84 87 112 120 88 67 82 85 81 78
5 11 22 27 10 6 4 15 21 18 31 29 34 24 12 13 15 12 15 23 27 31 31 31 33 30 25 23 23 39 50 55 60 69 64 89 100 109 94 82 93 96 83 80
4 9 17 23 21 21 15 4 5 14 21 37 20 28 15 11 10 13 21 27 30 32 33 34 36 36 34 31 26 25 44 50 51 56 62 70 81 98 97 74 86 99 80 82
8 18 21 22 20 12 13 14 13 16 16 33 41 49 16 12 12 15 27 33 32 31 32 31 35 39 41 37 31 18 29 41 44 51 59 63 66 83 100 99 74 68 74 77
10 22 19 24 23 24 27 30 27 28 29 28 31 29 34 24 30 39 35 32 30 30 32 34 34 37 40 40 33 21 18 32 39 45 53 57 62 77 90 91 90 83 77 79
11 17 17 28 31 30 38 39 36 37 36 34 34 42 35 28 25 32 30 28 27 31 31 33 31 31 34 36 40 27 16 22 32 41 45 49 53 61 70 95 97 104 87 84
19 20 21 26 16 23 25 38 37 36 37 34 37 41 22 25 25 27 28 27 33 35 33 29 28 27 30 34 37 36 12 17 25 34 37 40 48 56 65 77 99 100 98 94
30 24 20 23 25 27 15 11 15 23 26 29 36 39 35 37 41 41 36 36 37 35 34 28 22 20 23 29 35 28 17 8 15 25 32 37 42 50 57 71 95 91 105 101
33 28 23 20 23 32 43 32 25 24 35 24 32 36 40 39 43 46 36 35 36 35 35 34 29 32 26 25 26 32 26 18 4 11 20 29 36 43 56 65 78 64 68 85
15 26 21 21 21 23 15 1 13 11 35 39 39 21 15 21 20 19 12 18 28 31 35 39 35 35 32 30 23 19 21 26 16 8 14 18 25 38 55 61 65 62 61 64
16 15 25 24 22 22 25 32 24 29 19 5 4 14 22 24 31 32 27 29 26 27 31 29 32 32 31 24 18 12 10 15 21 10 1 19 24 36 49 54 59 55 56 53
17 12 15 17 24 29 17 27 42 37 40 35 35 35 32 42 41 35 31 30 30 27 25 23 25 25 24 25 21 21 25 12 1 13 7 11 30 43 48 56 56 56 58 51
11 13 15 16 15 35 50 47 59 60 54 56 57 53 51 49 48 49 47 44 37 32 27 23 23 21 24 20 20 16 21 22 16 13 26 22 19 30 46 44 52 56 50 48
19 32 14 20 28 45 62 66 66 66 72 72 68 66 59 69 69 65 60 55 49 42 30 25 24 23 22 23 24 21 17 15 12 24 15 13 14 13 27 36 31 45 38 30
33 22 25 39 50 54 51 51 58 56 59 65 74 76 68 61 56 53 49 49 51 45 34 24 22 22 24 24 14 23 24 21 22 21 20 18 20 20 11 26 7 10 22 15
19 14 8 17 57 54 60 72 66 65 66 67 67 60 57 52 50 43 41 39 41 45 37 28 25 25 19 26 16 13 27 25 26 24 28 26 25 22 19 8 13 6 5 11
Wind_Direction_850mb
196 219 224 231 228 256 275 265 260 259 256 264 262 253 248 252 255 247 249 252 244 235 228 219 197 197 192 192 195 197 201 203 200 197 189 190 191 197 196 196 194 188 184 184
187 232 246 243 245 244 243 245 246 250 252 260 260 255 249 252 255 251 255 247 248 217 223 209 199 192 193 209 202 198 203 205 205 202 193 192 191 201 200 202 198 193 190 187
242 257 282 229 227 230 234 240 242 249 254 240 266 264 252 249 252 253 250 250 248 236 213 217 210 199 190 206 205 205 204 209 207 204 197 197 193 198 202 205 202 199 194 190
242 256 240 238 239 226 247 223 248 248 248 253 228 267 257 229 239 238 244 241 236 237 238 227 220 206 203 218 234 217 208 212 212 212 209 210 212 208 209 207 203 204 199 195
238 227 233 238 238 234 247 265 231 249 251 257 247 248 261 247 227 247 241 242 244 244 249 236 222 220 217 204 209 213 227 218 221 217 218 215 216 214 213 204 205 206 204 201
257 287 269 267 257 243 252 263 256 255 252 247 238 248 251 242 215 238 244 245 259 258 247 250 231 226 220 212 207 218 214 228 218 218 218 218 217 205 200 203 209 207 208 206
210 242 230 259 250 244 232 236 240 228 228 243 240 235 243 264 13 333 325 318 323 314 287 261 234 228 223 217 212 211 219 223 223 221 221 232 224 220 220 216 216 205 203 206
273 213 202 143 256 286 218 232 234 242 246 255 225 231 258 105 80 359 277 311 332 336 326 311 279 247 227 223 217 215 217 217 218 214 218 228 222 219 220 221 218 215 205 207
303 244 131 154 296 283 241 236 258 269 266 265 263 214 141 158 118 103 62 27 7 359 354 344 320 286 237 227 225 222 223 221 219 229 220 221 217 217 220 216 217 221 208 204
39 273 243 327 288 227 259 345 235 224 247 247 238 246 252 163 146 82 36 18 10 358 354 353 342 320 282 236 230 229 223 225 224 230 228 224 218 221 216 213 218 218 213 209
304 248 257 268 243 291 239 237 239 288 261 243 247 249 26 105 111 59 24 9 3 359 355 351 347 338 316 284 236 232 228 224 224 229 226 217 224 221 209 219 223 221 219 215
41 295 270 270 64 346 301 280 286 271 253 244 259 258 95 92 79 41 21 2 355 354 354 358 356 349 339 320 280 236 230 225 226 223 218 217 220 216 205 195 231 224 220 215
21 231 274 225 202 219 243 211 265 246 279 263 250 254 118 117 102 35 8 353 346 348 352 354 360 1 354 347 330 269 230 228 223 218 217 216 217 217 218 213 209 220 215 213
281 266 268 279 351 327 273 234 257 263 255 241 252 267 178 251 272 305 328 322 328 336 345 351 356 2 4 359 346 307 239 225 221 217 217 217 214 212 209 211 199 222 217 215
257 272 282 280 286 283 268 265 264 247 256 260 261 283 281 300 313 304 300 300 309 330 338 346 351 358 5 4 356 335 258 233 225 217 218 216 216 222 222 208 210 200 219 219
209 275 277 282 277 273 276 267 255 248 252 255 265 267 273 287 292 302 299 289 295 307 323 329 339 347 358 2 360 341 286 237 223 218 219 218 214 211 206 212 196 194 207 220
248 267 273 279 291 297 275 262 249 246 237 244 250 261 302 294 281 293 305 304 290 290 299 310 323 331 348 354 354 352 301 247 225 220 219 221 217 212 205 202 200 200 201 212
258 251 262 269 283 265 263 313 280 274 241 242 254 268 277 274 281 282 286 297 298 297 281 290 293 323 337 350 5 15 7 297 235 226 221 217 217 214 206 203 200 200 207 206
229 246 257 250 259 261 276 265 234 254 266 247 259 267 272 289 288 275 275 279 290 290 286 277 283 278 299 325 343 17 26 3 281 225 230 221 215 209 204 203 196 194 191 197
212 224 234 249 238 257 278 314 258 280 269 265 255 267 261 293 281 283 349 313 302 297 288 276 277 287 272 285 296 329 13 15 355 265 214 200 211 203 198 191 187 189 186 188
196 213 230 240 250 263 273 276 232 243 276 103 191 266 280 285 289 305 303 294 298 304 306 281 272 273 268 270 301 278 322 4 14 14 216 189 178 189 191 187 183 178 175 179
275 260 235 241 250 263 240 261 242 255 278 290 284 277 288 284 279 278 281 284 286 298 305 295 277 271 279 254 265 280 269 232 33 11 59 121 170 154 165 172 174 171 172 171
257 250 293 275 271 294 302 293 287 288 284 285 286 282 284 278 270 279 274 275 276 280 289 291 285 273 266 266 245 266 266 235 219 129 99 108 127 160 172 167 173 173 168 172
277 280 247 281 255 262 272 281 279 272 272 272 270 272 270 268 265 268 266 267 262 267 268 277 277 272 260 258 255 234 212 177 170 216 181 132 196 26 114 134 144 145 136 138
281 280 258 266 275 295 282 282 291 274 271 268 271 266 262 265 260 261 265 257 252 253 255 258 267 269 258 251 250 231 219 198 182 170 172 155 133 152 89 92 264 105 116 146
283 307 297 292 301 289 285 291 285 280 275 267 264 262 261 250 254 258 263 260 254 246 245 247 260 259 271 252 258 232 226 227 204 200 195 200 213 203 191 211 278 298 244 257